TimeEDT,TemperatureF,Dew PointF,Humidity,Sea Level PressureIn,VisibilityMPH,Wind Direction,Wind SpeedMPH,Gust SpeedMPH,PrecipitationIn,Events,Conditions,WindDirDegrees,DateUTC
12:15 AM,64.4,60.8,88,29.92,10.0,NNE,9.2,-,N/A,,Overcast,30,2012-10-27 04:15:00
12:35 AM,64.4,60.8,88,29.91,10.0,NNE,10.4,-,N/A,,Overcast,20,2012-10-27 04:35:00
12:55 AM,64.4,60.8,88,29.91,10.0,NNE,9.2,16.1,N/A,,Overcast,30,2012-10-27 04:55:00
1:15 AM,64.4,60.8,88,29.91,10.0,NNE,10.4,17.3,N/A,,Overcast,20,2012-10-27 05:15:00
1:35 AM,64.4,60.8,88,29.90,10.0,NNE,10.4,16.1,N/A,,Overcast,20,2012-10-27 05:35:00
1:55 AM,64.4,60.8,88,29.89,10.0,NNE,8.1,18.4,N/A,,Overcast,20,2012-10-27 05:55:00
2:15 AM,64.4,60.8,88,29.88,10.0,NNE,9.2,-,N/A,,Overcast,20,2012-10-27 06:15:00
2:35 AM,64.4,60.8,88,29.87,10.0,North,9.2,-,N/A,,Overcast,10,2012-10-27 06:35:00
3:15 AM,64.4,60.8,88,29.85,10.0,North,11.5,-,N/A,,Overcast,10,2012-10-27 07:15:00
3:35 AM,64.4,60.8,88,29.84,10.0,North,9.2,-,N/A,,Overcast,10,2012-10-27 07:35:00
3:55 AM,64.4,60.8,88,29.83,10.0,NNE,9.2,18.4,N/A,,Overcast,20,2012-10-27 07:55:00
4:15 AM,64.4,60.8,88,29.82,10.0,NNE,9.2,-,N/A,,Overcast,20,2012-10-27 08:15:00
4:35 AM,64.4,60.8,88,29.82,10.0,NNE,10.4,-,N/A,,Overcast,20,2012-10-27 08:35:00
4:55 AM,64.4,60.8,88,29.82,10.0,NNE,8.1,-,N/A,,Overcast,30,2012-10-27 08:55:00
5:15 AM,64.4,60.8,88,29.81,10.0,North,10.4,-,N/A,,Overcast,10,2012-10-27 09:15:00
5:35 AM,64.4,60.8,88,29.81,10.0,NNE,9.2,-,N/A,,Overcast,20,2012-10-27 09:35:00
5:55 AM,64.4,60.8,88,29.82,10.0,NNE,9.2,-,N/A,,Overcast,20,2012-10-27 09:55:00
6:15 AM,64.4,60.8,88,29.82,10.0,NNE,10.4,-,N/A,,Overcast,20,2012-10-27 10:15:00
6:35 AM,64.4,60.8,88,29.82,10.0,NNE,9.2,-,N/A,,Overcast,30,2012-10-27 10:35:00
6:55 AM,64.4,60.8,88,29.81,10.0,North,11.5,-,N/A,,Overcast,10,2012-10-27 10:55:00
7:15 AM,64.4,60.8,88,29.80,10.0,North,9.2,16.1,N/A,,Overcast,10,2012-10-27 11:15:00
7:35 AM,62.6,60.8,94,29.81,10.0,NNE,10.4,17.3,N/A,,Mostly Cloudy,20,2012-10-27 11:35:00
7:55 AM,62.6,59.0,88,29.81,10.0,North,11.5,-,N/A,,Scattered Clouds,10,2012-10-27 11:55:00
8:15 AM,62.6,59.0,88,29.82,10.0,North,13.8,20.7,N/A,,Clear,10,2012-10-27 12:15:00
8:35 AM,62.6,59.0,88,29.81,10.0,North,10.4,18.4,N/A,,Clear,10,2012-10-27 12:35:00
8:55 AM,62.6,59.0,88,29.83,10.0,NNE,12.7,21.9,N/A,,Clear,20,2012-10-27 12:55:00
9:15 AM,62.6,59.0,88,29.83,10.0,North,12.7,21.9,N/A,,Scattered Clouds,10,2012-10-27 13:15:00
9:35 AM,62.6,59.0,88,29.82,10.0,North,15.0,19.6,N/A,,Mostly Cloudy,10,2012-10-27 13:35:00
10:15 AM,64.4,57.2,77,29.83,10.0,North,12.7,-,N/A,,Overcast,10,2012-10-27 14:15:00
10:35 AM,64.4,57.2,77,29.82,10.0,North,15.0,21.9,N/A,,Overcast,360,2012-10-27 14:35:00
10:55 AM,64.4,57.2,77,29.81,10.0,North,15.0,19.6,N/A,,Overcast,360,2012-10-27 14:55:00
11:15 AM,64.4,57.2,77,29.82,10.0,North,16.1,24.2,N/A,,Overcast,10,2012-10-27 15:15:00
11:35 AM,64.4,57.2,77,29.81,10.0,North,17.3,24.2,N/A,,Overcast,10,2012-10-27 15:35:00
11:55 AM,66.2,57.2,73,29.80,10.0,North,16.1,24.2,N/A,,Overcast,10,2012-10-27 15:55:00
12:15 PM,66.2,57.2,73,29.80,10.0,North,18.4,25.3,N/A,,Overcast,10,2012-10-27 16:15:00
12:35 PM,66.2,57.2,73,29.79,10.0,North,15.0,25.3,N/A,,Overcast,10,2012-10-27 16:35:00
12:55 PM,66.2,57.2,73,29.78,10.0,North,13.8,23.0,N/A,,Overcast,360,2012-10-27 16:55:00
1:35 PM,66.2,55.4,68,29.76,10.0,North,15.0,25.3,N/A,,Overcast,10,2012-10-27 17:35:00
2:15 PM,66.2,55.4,68,29.74,10.0,North,17.3,27.6,N/A,,Scattered Clouds,360,2012-10-27 18:15:00
2:35 PM,66.2,55.4,68,29.73,10.0,North,13.8,24.2,N/A,,Scattered Clouds,10,2012-10-27 18:35:00
2:55 PM,66.2,55.4,68,29.73,10.0,North,19.6,26.5,N/A,,Scattered Clouds,10,2012-10-27 18:55:00
3:15 PM,68.0,55.4,64,29.73,10.0,North,16.1,24.2,N/A,,Scattered Clouds,10,2012-10-27 19:15:00
3:55 PM,66.2,55.4,68,29.72,10.0,North,19.6,27.6,N/A,,Mostly Cloudy,10,2012-10-27 19:55:00
4:15 PM,66.2,55.4,68,29.73,10.0,NNE,17.3,24.2,N/A,,Overcast,20,2012-10-27 20:15:00
4:35 PM,64.4,55.4,73,29.73,10.0,North,20.7,31.1,N/A,,Overcast,10,2012-10-27 20:35:00
4:55 PM,64.4,55.4,73,29.72,10.0,North,18.4,24.2,N/A,,Overcast,10,2012-10-27 20:55:00
5:15 PM,64.4,55.4,73,29.71,10.0,North,17.3,25.3,N/A,,Overcast,360,2012-10-27 21:15:00
5:35 PM,64.4,55.4,73,29.71,10.0,North,15.0,23.0,N/A,,Mostly Cloudy,10,2012-10-27 21:35:00
5:55 PM,64.4,53.6,68,29.70,10.0,North,19.6,24.2,N/A,,Overcast,10,2012-10-27 21:55:00
6:15 PM,64.4,53.6,68,29.70,10.0,North,16.1,23.0,N/A,,Mostly Cloudy,360,2012-10-27 22:15:00
6:35 PM,64.4,53.6,68,29.70,10.0,North,13.8,20.7,N/A,,Scattered Clouds,360,2012-10-27 22:35:00
6:55 PM,62.6,53.6,72,29.70,10.0,North,15.0,25.3,N/A,,Mostly Cloudy,360,2012-10-27 22:55:00
7:15 PM,62.6,53.6,72,29.70,10.0,North,15.0,20.7,N/A,,Mostly Cloudy,10,2012-10-27 23:15:00
7:35 PM,62.6,53.6,72,29.70,10.0,North,13.8,19.6,N/A,,Scattered Clouds,360,2012-10-27 23:35:00
7:55 PM,62.6,53.6,72,29.70,10.0,North,17.3,-,N/A,,Mostly Cloudy,10,2012-10-27 23:55:00
8:15 PM,62.6,53.6,72,29.70,10.0,North,10.4,18.4,N/A,,Mostly Cloudy,360,2012-10-28 00:15:00
8:35 PM,62.6,53.6,72,29.70,10.0,North,10.4,18.4,N/A,,Mostly Cloudy,10,2012-10-28 00:35:00
9:15 PM,62.6,53.6,72,29.70,10.0,North,15.0,18.4,N/A,,Mostly Cloudy,10,2012-10-28 01:15:00
9:35 PM,62.6,53.6,72,29.70,10.0,North,17.3,24.2,N/A,,Overcast,10,2012-10-28 01:35:00
9:55 PM,62.6,53.6,72,29.70,10.0,North,15.0,20.7,N/A,,Overcast,10,2012-10-28 01:55:00
10:15 PM,62.6,53.6,72,29.70,10.0,North,11.5,23.0,N/A,,Scattered Clouds,360,2012-10-28 02:15:00
10:35 PM,62.6,53.6,72,29.70,10.0,North,15.0,19.6,N/A,,Clear,10,2012-10-28 02:35:00
10:55 PM,62.6,53.6,72,29.71,10.0,North,12.7,21.9,N/A,,Scattered Clouds,10,2012-10-28 02:55:00
11:15 PM,62.6,53.6,72,29.71,10.0,North,10.4,19.6,N/A,,Overcast,10,2012-10-28 03:15:00
11:35 PM,62.6,53.6,72,29.70,10.0,NNE,15.0,20.7,N/A,,Overcast,20,2012-10-28 03:35:00
11:55 PM,62.6,53.6,72,29.69,10.0,North,15.0,23.0,N/A,,Mostly Cloudy,360,2012-10-28 03:55:00